This demonstration page uses our WeatherBlox Daily Observations layout. Learn more.

Left ArrowRight Arrow

53.62937, 11.41316

Hourly Observations for December 7, 2022

Temp ( °F °C ) Dew Point ( °F °C ) Humidity (%) Winds ( mph kmh ) Pressure ( in mb ) Visibility ( mi km ) Precip ( " mm )
12:20 am 00:20 Cloudy 34 1 32 0 93 93 SSW 6 9 29.88 1012 6 10 0.00 0.00
12:50 am 00:50 Cloudy 34 1 34 1 100 100 VRB 3 6 29.86 1011 6 10 0.00 0.00
1:20 am 01:20 Cloudy 36 2 34 1 93 93 VRB 3 6 29.86 1011 6 10 0.00 0.00
1:50 am 01:50 Mostly Cloudy 36 2 34 1 93 93 SW 3 6 29.83 1010 6 9 0.00 0.00
2:20 am 02:20 Mostly Cloudy 36 2 36 2 100 100 W 8 13 29.83 1010 4 6 0.00 0.00
2:50 am 02:50 Cloudy 37 3 36 2 93 93 WSW 6 9 29.83 1010 5 8 0.00 0.00
3:20 am 03:20 Cloudy 37 3 36 2 93 93 W 7 11 29.83 1010 6 9 0.00 0.00
3:50 am 03:50 Cloudy 37 3 36 2 93 93 W 8 13 29.80 1009 6 10 0.00 0.00
4:20 am 04:20 Cloudy 37 3 36 2 93 93 W 7 11 29.80 1009 6 10 0.00 0.00
4:50 am 04:50 Cloudy 37 3 36 2 93 93 WNW 9 15 29.80 1009 6 10 0.00 0.00
5:20 am 05:20 Cloudy 37 3 34 1 87 87 NW 10 17 29.83 1010 6 10 0.00 0.00
5:50 am 05:50 Mostly Cloudy 36 2 34 1 93 93 NW 9 15 29.83 1010 6 10 0.00 0.00
6:20 am 06:20 Mostly Cloudy 36 2 34 1 93 93 NW 7 11 29.83 1010 6 10 0.00 0.00
6:50 am 06:50 Mostly Cloudy 34 1 32 0 93 93 WNW 8 13 29.83 1010 6 10 0.00 0.00
7:20 am 07:20 Mostly Cloudy 34 1 32 0 93 93 WNW 7 11 29.83 1010 6 10 0.00 0.00
7:50 am 07:50 Cloudy 34 1 32 0 93 93 W 6 9 29.83 1010 6 10 0.00 0.00
8:20 am 08:20 Cloudy 34 1 32 0 93 93 W 7 11 29.83 1010 6 10 0.00 0.00
8:50 am 08:50 Partly Cloudy 34 1 32 0 93 93 W 3 6 29.83 1010 6 10 0.00 0.00
9:20 am 09:20 Mostly Sunny 34 1 32 0 93 93 W 6 9 29.83 1010 6 10 0.00 0.00
9:50 am 09:50 Mostly Sunny 34 1 32 0 93 93 W 7 11 29.83 1010 6 10 0.00 0.00
10:20 am 10:20 Mostly Sunny 36 2 32 0 87 87 W 8 13 29.83 1010 6 10 0.00 0.00
10:50 am 10:50 Mostly Sunny 36 2 32 0 87 87 W 8 13 29.83 1010 6 10 0.00 0.00
11:20 am 11:20 Mostly Sunny 37 3 32 0 81 81 W 8 13 29.83 1010 6 10 0.00 0.00
11:50 am 11:50 Mostly Sunny 37 3 32 0 81 81 WNW 8 13 29.83 1010 6 10 0.00 0.00
12:20 pm 12:20 Mostly Sunny 37 3 32 0 81 81 WNW 8 13 29.83 1010 6 10 0.00 0.00
12:50 pm 12:50 Mostly Sunny 37 3 30 -1 75 75 WNW 10 17 29.80 1009 6 10 0.00 0.00
1:20 pm 13:20 Mostly Sunny 37 3 28 -2 70 70 WNW 12 19 29.80 1009 6 10 0.00 0.00
1:50 pm 13:50 Mostly Sunny 37 3 28 -2 70 70 WNW 13 20 29.80 1009 6 10 0.00 0.00
2:20 pm 14:20 Mostly Sunny 37 3 28 -2 70 70 W 12 19 29.80 1009 6 10 0.00 0.00
2:50 pm 14:50 Mostly Sunny 37 3 27 -3 65 65 WNW 14 22 29.80 1009 6 10 0.00 0.00
3:20 pm 15:20 Mostly Sunny 36 2 27 -3 69 69 WNW 12 19 29.80 1009 6 10 0.00 0.00
3:50 pm 15:50 Mostly Sunny 36 2 27 -3 69 69 WNW 10 17 29.80 1009 6 10 0.00 0.00
4:20 pm 16:20 Mostly Clear 34 1 27 -3 75 75 WNW 8 13 29.80 1009 6 10 0.00 0.00
4:50 pm 16:50 Mostly Clear 34 1 27 -3 75 75 WNW 9 15 29.80 1009 6 10 0.00 0.00
5:20 pm 17:20 Mostly Clear 34 1 27 -3 75 75 WNW 7 11 29.80 1009 6 10 0.00 0.00
5:50 pm 17:50 Mostly Clear 34 1 27 -3 75 75 WNW 6 9 29.80 1009 6 10 0.00 0.00
6:20 pm 18:20 Mostly Clear 32 0 27 -3 80 80 W 3 6 29.80 1009 6 10 0.00 0.00
6:50 pm 18:50 Mostly Clear 32 0 25 -4 74 74 W 5 7 29.80 1009 6 10 0.00 0.00
7:20 pm 19:20 Mostly Clear 32 0 25 -4 74 74 W 5 7 29.80 1009 6 10 0.00 0.00
7:50 pm 19:50 Mostly Clear 30 -1 27 -3 86 86 W 3 6 29.80 1009 6 10 0.00 0.00
8:20 pm 20:20 Mostly Clear 30 -1 27 -3 86 86 W 3 6 29.80 1009 6 10 0.00 0.00
8:50 pm 20:50 Mostly Clear 30 -1 27 -3 86 86 WSW 3 6 29.80 1009 6 10 0.00 0.00
9:20 pm 21:20 Cloudy 30 -1 27 -3 86 86 VRB 2 4 29.80 1009 6 10 0.00 0.00
9:50 pm 21:50 Cloudy 30 -1 27 -3 86 86 VRB 2 4 29.77 1008 6 10 0.00 0.00
10:20 pm 22:20 Cloudy 32 0 27 -3 80 80 SW 3 6 29.77 1008 6 10 0.00 0.00
10:50 pm 22:50 Cloudy 32 0 25 -4 74 74 VRB 1 2 29.77 1008 6 10 0.00 0.00
11:20 pm 23:20 Cloudy 30 -1 27 -3 86 86 VRB 2 4 29.77 1008 6 10 0.00 0.00
11:50 pm 23:50 Cloudy 32 0 27 -3 80 80 S 3 6 29.74 1007 6 10 0.00 0.00

Powered by AerisWeather